Regional Weather Roundup
Issued by NWS

Home | Current Version | Previous Version | Graphics & Text | Print | Product List | Glossary On
Versions: 1 2 3 4 5 6 7 8 9 10 11 12 13 14 15 16 17 18 19 20 21 22 23 24 25 26 27 28 29 30 31 32 33 34 35 36 37 38 39 40 41 42 43 44 45 46 47 48 49 50
000
ASUS44 KMEG 240310
RWRTN
TENNESSEE HOURLY STATE WEATHER ROUNDUP
NATIONAL WEATHER SERVICE MEMPHIS TN
1000 PM CDT WED JUL 23 2014

TNZ002-004-019-021-049-052-054-088>092-240400-
WEST TENNESSEE

CITY           SKY/WX    TMP DP  RH WIND       PRES   REMARKS
MEMPHIS INTL   MOCLDY    75  70  84 N9        30.04R
NWS MEMPHIS      N/A     74 N/A N/A MISG        N/A
JACKSON        PTCLDY    72  68  87 N5        30.03R
DYERSBURG      CLEAR     72  61  68 NW3       30.05R
UNION CITY     CLOUDY    70  70 100 W3        30.03R
PARIS          CLEAR     67  64  90 CALM      30.04S
LEXINGTON      CLEAR     72  70  94 CALM      30.02R
$$

TNZ008-025-027-028-033-062-065-066-240400-
NORTH MIDDLE TENNESSEE

CITY           SKY/WX    TMP DP  RH WIND       PRES   REMARKS
NASHVILLE      MOCLDY    79  71  76 NE8       30.01R
DICKSON        MOCLDY    75  70  83 N5        30.02R
PORTLAND       CLOUDY    73  68  83 NW5       30.01R
CLARKSVILLE    CLOUDY    77  69  76 NW6       30.02R
LEBANON        MOCLDY    75  69  81 CALM      30.00R
SMYRNA         MOCLDY    75  70  85 CALM      30.02R
COOKEVILLE     CLOUDY    70  70 100 CALM      30.04R
LIVINGSTON       N/A     68  67  96 CALM      30.06
GALLATIN       MOCLDY    79  70  74 CALM      30.02S
CROSSVILLE     CLOUDY    73  68  84 N5        30.08R
$$

TNZ061-075-076-078-094-096-097-240400-
SOUTH MIDDLE TENNESSEE

CITY           SKY/WX    TMP DP  RH WIND       PRES   REMARKS
LEWISBURG      CLOUDY    78  72  82 CALM      30.01S
FAYETTEVILLE   CLEAR     73  72  94 SW5G47    30.03S
TULLAHOMA      CLEAR     73  70  88 CALM      30.04S
WINCHESTER     CLEAR     73  72  94 CALM      30.04R
MCMINNVILLE    MOCLDY    73  73 100 N12       30.06R
COLUMBIA       MOCLDY    79  73  83 S3        30.01R
SHELBYVILLE    MOCLDY    79  73  83 CALM      30.03R
$$

TNZ017-018-042-046-047-240400-
NORTHEAST TENNESSEE

CITY           SKY/WX    TMP DP  RH WIND       PRES   REMARKS
TRI CITIES     MOCLDY    73  68  84 SW3       30.02S
ELIZABETHTON   MOCLDY    72  68  88 CALM      30.04R
$$

TNZ012-013-036-069-073-074-240400-
CENTRAL EAST TENNESSEE

CITY           SKY/WX    TMP DP  RH WIND       PRES   REMARKS
KNOXVILLE      MOCLDY    75  71  87 W5        30.00S
OAK RIDGE      MOCLDY    73  71  93 CALM      30.02S
GATLINBURG     CLEAR     72  70  94 CALM      30.01S
MORRISTOWN     CLEAR     72  70  94 CALM      30.03F
$$

TNZ083-085-099-240400-
SOUTHEAST TENNESSEE

CITY           SKY/WX    TMP DP  RH WIND       PRES   REMARKS
CHATTANOOGA    MOCLDY    79  72  79 CALM      30.01R
$$

SKY/WX REPORTED AS FAIR MEANS FEW OR NO CLOUDS BELOW
12 THOUSAND FEET.



USA.gov is the U.S. government's official web portal to all federal, state and local government web resources and services.